Regional Weather Roundup
Issued by NWS Northern Indiana

Home | Current Version | Previous Version | Text Only | Print | Product List | Glossary Off
Versions: 1 2 3 4 5 6 7 8 9 10 11 12 13 14 15 16 17 18 19 20 21 22 23 24 25 26 27 28 29 30 31 32 33 34 35 36 37 38 39 40 41 42 43 44 45 46 47 48 49 50

000
ASUS43 KIWX 280400
RWRIWX

KIWX WEATHER ROUNDUP
NATIONAL WEATHER SERVICE NORTHERN INDIANA
1100 PM EST THU NOV 27 2014

NOTE: "FAIR" INDICATES FEW OR NO CLOUDS BELOW 12,000 FEET WITH NO
SIGNIFICANT WEATHER AND/OR OBSTRUCTIONS TO VISIBILITY.

* THESE STATIONS ARE NOT UNDER NWS QUALITY CONTROL. THEY ALSO MAY NOT
  REPORT WEATHER SUCH AS PRECIPITATION OR FOG.

INZ001>027-280500-
NORTHERN INDIANA

CITY           SKY/WX    TMP DP  RH WIND       PRES   REMARKS
GARY*          MOCLDY    21  10  63 NW7       30.41S WCI  13
SOUTH BEND     CLOUDY    23  14  68 W10       30.36S WCI  12
GOSHEN         CLOUDY    22  18  85 W8        30.35R WCI  12
ANGOLA*        CLOUDY    21  16  79 NW5       30.32S WCI  15
FORT WAYNE     CLOUDY    24  19  81 W12       30.37R WCI  13
PERU/GRISSOM   CLOUDY    24  19  81 W7        30.38R WCI  16

$$
INZ028>050-280500-
CENTRAL INDIANA

CITY           SKY/WX    TMP DP  RH WIND       PRES   REMARKS
LAFAYETTE      CLOUDY    21  17  84 W10       30.42R WCI  10
KOKOMO*        CLOUDY    25  16  68 NW10      30.38S WCI  15
MUNCIE*        CLOUDY    24  16  71 NW9       30.37S WCI  14
INDIANAPOLIS   FLURRIES  25  18  74 NW10      30.39S WCI  15

$$
MIZ043>046-050>051-056>058-064>065-071>073-077>080-280500-
SOUTHWEST LOWER MICHIGAN

CITY           SKY/WX    TMP DP  RH WIND       PRES   REMARKS
BATTLE CREEK   CLOUDY    22  14  71 N7        30.33S WCI  13
BENTON HARBOR  CLOUDY    24  13  62 NW6       30.36S WCI  17
COLDWATER*     CLOUDY    24  17  75 NW3       30.32S
HILLSDALE*     MOCLDY    22  13  68 NW8       30.29S WCI  12
HOLLAND        CLOUDY    22  13  68 NE3       30.36S
GRAND RAPIDS   MOCLDY    19  10  68 NW5       30.34S WCI  12
KALAMAZOO      CLOUDY    21  16  81 N9        30.34S WCI  11
STURGIS*       FLURRIES  21  18  86 CALM      30.33S
THREE RIVERS*  FLURRIES  23  19  83 NW3       30.35S

$$
OHZ001>008-015>018-024>025-280500-
NORTHWEST OHIO

CITY           SKY/WX    TMP DP  RH WIND       PRES   REMARKS
DEFIANCE       CLOUDY    26  17  68 NW9       30.34S WCI  17
FINDLAY        CLOUDY    28  22  78 W9        30.31R WCI  19
TOLEDO EXPRESS FAIR      25  15  66 NW10G17   30.32S WCI  15
TOLEDO METCALF CLOUDY    27  19  72 NW14      30.33R WCI  16
LIMA           CLOUDY    28  22  78 W10       30.32S WCI  19

$$
AND FOR LAKE MICHIGAN COASTAL AND OPEN LAKE BUOY OBSERVATIONS

STATION/POSITION TEMP    WIND        PRES    VSBY  WAVE
                 AIR SEA DIR/SP/G                  HT/PER
                 (F)     (DEG/KT/KT) (MB)    (MI)  (FT/S)
CALUMET HARBOR    19     280/  4/  5 1028.4R
MICHIGAN CITY     24     260/ 12/ 18   N/A
SAINT JOSEPH      27     310/  7/ 16 1028.8S
SOUTH LAKE BUOY   23 42  290/ 10/ 14 1029.5S         5/ 7

$$
&&



USA.gov is the U.S. government's official web portal to all federal, state and local government web resources and services.